cubair logo

For once you have tasted flight you will walk the earth with your eyes turned skywards,
for there you have been and there you will long to return.


"Leonardo da Vinci"

Cub Air Flight was founded in 2006, by Steve and Sharon Krog. Cub Air Flight school uses vintage Piper J3 Cub aircraft to instruct in, following a philosophy that “old school is still cool.” Cub Air Flight believes that these fine classic airplanes make better pilots by requiring more attention and flying skill than newer airplanes. We at Cub Air Flight hold that flying a vintage airplane is as much an art as it is a science.

The Piper J3 Cub is revered among aviators as a truly classic and iconic airplane. It has served as a trainer to more pilots than almost any airplane, earning a reputation as easy to fly but yet challenging enough to force students to continually better themselves. Cub Air uses two J3 Cubs, restored and maintained with the same attention to detail as a lovingly restored classic car. Cub Air also uses a Piper Cherokee for training requiring an aircraft with more advanced instruments.

PrintEmail

Come fly with us and feel the freedom of
flying, the way it's supposed to be!


"Old School Is Still Cool!"

Our Staff

Steve Krog
Sharon Krog
Jamie Weber
Luke Lachendro
Chris Hibben

Shop Our Store

shopping-cart-icon-515

Find Us Here!

Hartford Municipal

Airport (KHXF)

4200 Highway U

Hartford, WI 53027

Juneau Weather

[source: ADDS]
METAR
KUNU 261655Z AUTO 21004KT 10SM BKN018 23/18 A2983 RMK AO2 T02320178 =
TAF

Fond Du Lac Weather

[source: ADDS]
METAR
KFLD 261653Z AUTO 24007KT 10SM SCT032 25/19 A2982 RMK AO2 SLP093 T02500189 =
TAF

West Bend Weather

[source: ADDS]
METAR
KETB 261655Z AUTO 27006KT 10SM CLR 23/16 A2982 RMK AO2 =
TAF

Oshkosh Weather

[source: ADDS]
METAR
KOSH 261653Z VRB05KT 10SM BKN017 24/19 A2980 RMK AO2 SLP080 T02390194 =
TAF
KOSH 261507Z 2615/2712 25008KT P6SM BKN015 TEMPO 2615/2618 SCT015 BKN040 FM261800 25007KT P6SM SCT020 BKN035 FM262100 26005KT P6SM SCT040 SCT200 FM270400 23005KT P6SM SCT050 BKN100 =